DW5686 Weather Reports


Display with metric or nautical units.
time (UTC)temp
F
wind
direction
speed
MPH
gust
MPH
rain 1hr
in
rain 24hr
in
rain mn
in
humidity
%
barometer
mb
20260507185503 75 278 3.0 14.0 0.00 0.00 0.00 65 1007.8
20260507185003 76 220 3.0 14.0 0.00 0.00 0.00 65 1007.7
20260507184525 76 217 3.0 12.0 0.00 0.00 0.00 68 1007.8
20260507184004 76 222 5.0 12.0 0.00 0.00 0.00 64 1007.8
20260507183524 76 242 1.0 10.0 0.00 0.00 0.00 67 1007.6
20260507183002 75 197 5.0 11.0 0.00 0.00 0.00 65 1007.8
20260507182524 75 196 7.0 11.0 0.00 0.00 0.00 64 1007.8
20260507182003 75 246 3.0 8.0 0.00 0.00 0.00 70 1007.9
20260507181502 75 238 5.0 8.0 0.00 0.00 0.00 68 1007.8
20260507181024 74 220 3.0 8.0 0.00 0.00 0.00 69 1007.7
20260507180502 74 206 3.0 8.0 0.00 0.00 0.00 70 1007.8
20260507180002 74 212 4.0 7.0 0.00 0.00 0.00 71 1007.9
20260507175503 74 31 2.0 8.0 0.00 0.00 0.00 75 1008.0
20260507175003 72 214 3.0 9.0 0.00 0.00 0.00 71 1008.2
20260507174503 72 234 4.0 10.0 0.00 0.00 0.00 74 1008.3
20260507174003 73 200 4.0 10.0 0.00 0.00 0.00 74 1008.4
20260507173503 73 201 4.0 7.0 0.00 0.00 0.00 78 1008.6
20260507173002 72 197 2.0 7.0 0.00 0.00 0.00 81 1008.6
20260507172504 71 309 1.0 5.0 0.00 0.00 0.00 82 1008.7
20260507172003 70 233 2.0 5.0 0.00 0.00 0.00 81 1008.7
20260507171503 70 254 1.0 7.0 0.00 0.00 0.00 82 1008.6
20260507171002 69 222 3.0 7.0 0.00 0.00 0.00 82 1008.4
20260507170504 69 237 2.0 7.0 0.00 0.00 0.00 84 1008.2
20260507170003 68 250 1.0 7.0 0.00 0.00 0.00 84 1008.3
20260507165503 68 205 3.0 7.0 0.00 0.00 0.00 86 1008.9
20260507165004 68 208 3.0 8.0 0.00 0.00 0.00 84 1008.8
20260507164503 68 199 1.0 8.0 0.00 0.00 0.00 84 1008.8
20260507164004 69 115 2.0 7.0 0.00 0.00 0.00 86 1008.7
20260507163504 69 227 2.0 7.0 0.00 0.00 0.00 86 1008.8
20260507163003 69 225 2.0 7.0 0.00 0.00 0.00 86 1008.7
20260507162503 69 172 3.0 12.0 0.00 0.00 0.00 89 1008.7
20260507162024 68 233 3.0 12.0 0.00 0.00 0.00 89 1009.2
20260507161523 67 212 4.0 7.0 0.00 0.00 0.00 89 1009.3
20260507161003 67 209 4.0 7.0 0.00 0.00 0.00 91 1009.4
20260507160503 67 203 2.0 6.0 0.00 0.00 0.00 92 1009.3
20260507160004 66 217 2.0 7.0 0.00 0.00 0.00 92 1009.3
20260507155504 66 249 2.0 8.0 0.00 0.00 0.00 92 1009.2
20260507155004 66 209 4.0 8.0 0.00 0.00 0.00 92 1009.0
20260507154503 66 212 2.0 6.0 0.00 0.00 0.00 92 1008.9
20260507154003 66 240 1.0 7.0 0.00 0.00 0.00 92 1008.6
20260507153504 66 232 3.0 7.0 0.00 0.00 0.00 93 1008.5
20260507153004 66 194 2.0 5.0 0.00 0.00 0.00 93 1008.2
20260507152504 66 177 3.0 5.0 0.00 0.00 0.00 93 1008.1
20260507152004 66 71 2.0 3.0 0.00 0.00 0.00 93 1008.0
20260507151503 66 71 2.0 3.0 0.00 0.00 0.00 93 1007.8
20260507151003 65 70 0.0 4.0 0.00 0.00 0.00 93 1008.0
20260507150503 65 83 3.0 4.0 0.00 0.00 0.00 93 1008.1
20260507150003 65 181 1.0 2.0 0.00 0.00 0.00 93 1008.4
20260507145524 65 181 1.0 6.0 0.00 0.00 0.00 95 1008.7
20260507145004 65 181 2.0 6.0 0.00 0.00 0.00 93 1009.0
20260507144504 64 179 2.0 4.0 0.00 0.00 0.00 95 1009.3
20260507144003 64 199 2.0 6.0 0.00 0.00 0.00 95 1009.7
20260507143503 64 215 2.0 6.0 0.00 0.00 0.00 95 1009.8
20260507143004 64 242 1.0 3.0 0.00 0.00 0.00 95 1009.7
20260507142504 64 193 2.0 7.0 0.00 0.00 0.00 95 1009.9
20260507142003 64 197 3.0 7.0 0.00 0.00 0.00 95 1010.2
20260507141504 64 227 3.0 6.0 0.00 0.00 0.00 95 1010.2
20260507141004 64 239 1.0 7.0 0.00 0.00 0.00 95 1010.2
20260507140503 64 216 3.0 7.0 0.00 0.00 0.00 95 1009.9
20260507140024 64 173 2.0 6.0 0.00 0.00 0.00 95 1009.5
20260507135524 64 228 2.0 7.0 0.00 0.00 0.00 95 1009.3
20260507135003 64 177 3.0 7.0 0.00 0.00 0.00 95 1009.1
20260507134525 64 162 5.0 7.0 0.00 0.00 0.00 95 1009.1
20260507134025 64 167 3.0 6.0 0.00 0.00 0.00 95 1009.2
20260507133503 64 161 4.0 7.0 0.00 0.00 0.00 95 1009.3
20260507133003 64 167 2.0 7.0 0.00 0.00 0.00 95 1009.3
20260507132524 64 162 4.0 7.0 0.00 0.00 0.00 95 1009.3
20260507132003 64 161 2.0 6.0 0.00 0.00 0.00 93 1009.4
20260507131503 64 161 1.0 6.0 0.00 0.00 0.00 95 1009.3
20260507131003 64 215 2.0 5.0 0.00 0.00 0.00 93 1009.7
20260507130504 64 277 2.0 4.0 0.00 0.00 0.00 95 1009.8
20260507130004 64 279 1.0 2.0 0.00 0.00 0.00 95 1009.5
20260507125503 64 279 0.0 2.0 0.00 0.00 0.00 95 1009.4
20260507125004 64 279 0.0 2.0 0.00 0.00 0.00 95 1009.3
20260507124504 64 279 1.0 4.0 0.00 0.00 0.00 95 1009.6
20260507124004 64 279 1.0 4.0 0.00 0.00 0.00 95 1009.7
20260507123504 64 39 0.0 3.0 0.00 0.00 0.00 95 1009.7
20260507123004 64 67 0.0 6.0 0.00 0.00 0.00 93 1009.9
20260507122504 64 48 2.0 6.0 0.00 0.00 0.00 93 1010.0
20260507122004 63 165 1.0 8.0 0.00 0.00 0.00 93 1010.4
20260507121525 64 273 1.0 8.0 0.00 0.00 0.00 93 1010.6
20260507121003 64 189 1.0 7.0 0.00 0.00 0.00 93 1010.6
20260507120503 64 178 1.0 7.0 0.00 0.00 0.00 93 1010.5
20260507120003 63 233 0.0 3.0 0.00 0.00 0.00 93 1010.5
20260507115503 63 233 0.0 3.0 0.00 0.00 0.00 93 1010.5
20260507115004 63 198 1.0 3.0 0.00 0.00 0.00 93 1010.4
20260507114503 64 198 0.0 2.0 0.00 0.00 0.00 93 1010.0
20260507114003 63 0 0.0 2.0 0.00 0.00 0.00 93 1009.6
20260507113503 63 198 1.0 3.0 0.00 0.00 0.00 93 1009.4
20260507113025 63 198 1.0 3.0 0.00 0.00 0.00 93 1009.4
20260507112503 63 0 0.0 3.0 0.00 0.00 0.00 93 1009.4
20260507112024 63 198 0.0 3.0 0.00 0.00 0.00 93 1009.6
20260507111504 63 198 2.0 4.0 0.00 0.00 0.00 95 1009.7
20260507111003 63 248 2.0 4.0 0.00 0.00 0.00 95 1009.8
20260507110504 63 165 0.0 3.0 0.00 0.00 0.00 95 1010.0
20260507110004 63 165 1.0 3.0 0.00 0.00 0.00 95 1009.9
20260507105504 63 149 0.0 2.0 0.00 0.00 0.00 93 1010.3
20260507105003 63 149 1.0 2.0 0.00 0.00 0.00 93 1010.0
20260507104524 63 149 0.0 2.0 0.00 0.00 0.00 93 1009.8
20260507104025 63 0 0.0 2.0 0.00 0.00 0.00 93 1009.8
20260507103504 63 149 0.0 2.0 0.00 0.00 0.00 93 1009.8
20260507103024 63 0 0.0 2.0 0.00 0.00 0.00 93 1009.8
20260507102503 63 149 1.0 2.0 0.00 0.00 0.00 93 1009.8
20260507102003 63 0 0.0 3.0 0.00 0.00 0.00 93 1010.1
20260507101503 63 149 1.0 3.0 0.00 0.00 0.00 93 1009.7
20260507101003 63 149 2.0 2.0 0.00 0.00 0.00 93 1009.5
20260507100504 63 149 1.0 2.0 0.00 0.00 0.00 93 1009.4
20260507100025 63 0 0.0 2.0 0.00 0.00 0.00 93 1009.4
20260507095503 63 149 0.0 3.0 0.00 0.00 0.00 93 1009.1
20260507095003 63 149 2.0 3.0 0.00 0.00 0.00 93 1009.1
20260507094503 63 0 0.0 4.0 0.00 0.00 0.00 93 1009.4
20260507094003 63 166 3.0 4.0 0.00 0.00 0.00 93 1009.2
20260507093504 63 216 1.0 4.0 0.00 0.00 0.00 93 1009.1
20260507093004 63 216 2.0 5.0 0.00 0.00 0.00 93 1009.6
20260507092504 63 216 0.0 5.0 0.00 0.00 0.00 93 1009.8
20260507092004 63 258 1.0 5.0 0.00 0.00 0.00 93 1009.8
20260507091503 63 205 2.0 5.0 0.00 0.00 0.00 93 1009.4
20260507091004 63 217 2.0 6.0 0.00 0.00 0.00 93 1009.7
20260507090503 63 214 2.0 6.0 0.00 0.00 0.00 93 1010.0
20260507090004 63 310 1.0 5.0 0.00 0.00 0.00 93 1010.1
20260507085524 63 175 2.0 6.0 0.00 0.00 0.00 93 1010.0
20260507085025 63 194 2.0 6.0 0.00 0.00 0.00 93 1010.0
20260507084503 63 205 1.0 4.0 0.00 0.00 0.00 93 1010.1
20260507084004 63 236 2.0 4.0 0.00 0.00 0.00 93 1010.2
20260507083524 63 176 1.0 2.0 0.00 0.00 0.00 93 1010.2
20260507083005 63 0 0.0 2.0 0.00 0.00 0.00 93 1010.0
20260507082504 63 176 0.0 2.0 0.00 0.00 0.00 93 1009.9
20260507082003 63 176 0.0 2.0 0.00 0.00 0.00 93 1009.6
20260507081503 63 176 1.0 2.0 0.00 0.00 0.00 93 1009.7
20260507081004 63 176 0.0 3.0 0.00 0.00 0.00 93 1009.8
20260507080503 63 185 2.0 4.0 0.00 0.00 0.00 93 1009.9
20260507080004 63 215 1.0 4.0 0.00 0.00 0.00 93 1010.1
20260507075503 63 215 1.0 4.0 0.00 0.00 0.00 93 1010.0
20260507075003 63 215 0.0 2.0 0.00 0.00 0.00 93 1010.2
20260507074524 63 0 0.0 2.0 0.00 0.00 0.00 93 1010.3
20260507074003 63 215 0.0 2.0 0.00 0.00 0.00 93 1010.3
20260507073503 63 215 0.0 3.0 0.00 0.00 0.00 93 1010.3
20260507073003 63 215 2.0 6.0 0.00 0.00 0.00 93 1010.0
20260507072523 63 215 1.0 6.0 0.00 0.00 0.00 93 1009.9
20260507072003 63 215 1.0 5.0 0.00 0.00 0.00 93 1010.1
20260507071502 63 200 2.0 5.0 0.00 0.00 0.00 93 1009.8
20260507071023 63 156 2.0 5.0 0.00 0.00 0.00 93 1009.2
20260507070524 63 167 1.0 4.0 0.00 0.00 0.00 93 1010.3
20260507070003 63 39 1.0 3.0 0.00 0.00 0.00 93 1010.8
20260507065502 63 39 1.0 4.0 0.00 0.00 0.00 93 1011.5
20260507065003 63 41 1.0 6.0 0.00 0.00 0.00 93 1011.7
20260507064502 63 89 0.0 6.0 0.00 0.00 0.00 93 1011.8
20260507064002 63 89 0.0 3.0 0.00 0.00 0.00 93 1011.3
20260507063523 63 89 1.0 3.0 0.00 0.00 0.00 93 1011.5
20260507063002 63 186 2.0 3.0 0.00 0.00 0.00 93 1011.9
20260507062503 63 186 0.0 4.0 0.00 0.00 0.00 93 1011.9
20260507062002 63 186 2.0 4.0 0.00 0.00 0.00 93 1012.2
20260507061502 63 193 1.0 4.0 0.00 0.00 0.00 93 1012.0
20260507061003 63 193 1.0 6.0 0.00 0.00 0.00 93 1012.0
20260507060503 63 193 1.0 8.0 0.00 0.00 0.00 93 1012.1
20260507060003 63 155 5.0 8.0 0.00 0.00 0.00 93 1011.8
20260507055503 63 147 2.0 5.0 0.00 0.00 0.00 93 1012.2
20260507055024 63 1 1.0 5.0 0.00 0.00 0.00 93 1012.5
20260507054502 63 28 1.0 12.0 0.00 0.00 0.00 93 1012.6
20260507054003 63 28 1.0 12.0 0.00 0.00 0.00 93 1012.8
20260507053502 63 24 1.0 7.0 0.00 0.00 0.00 93 1012.7
20260507053003 64 339 2.0 7.0 0.00 0.00 0.00 93 1012.3
20260507052502 63 203 1.0 3.0 0.00 0.00 0.00 93 1012.2
20260507052003 63 203 2.0 2.0 0.00 0.00 0.00 93 1012.0
20260507051502 63 0 0.0 4.0 0.00 0.00 0.00 93 1012.0
20260507051002 63 202 0.0 5.0 0.00 0.00 0.00 93 1011.9
20260507050503 63 196 2.0 6.0 0.00 0.00 0.00 93 1011.7
20260507050024 63 148 2.0 7.0 0.00 0.00 0.00 93 1011.5
20260507045503 63 150 3.0 7.0 0.00 0.00 0.00 93 1011.5
20260507045003 63 150 2.0 7.0 0.00 0.00 0.00 92 1011.5
20260507044502 63 173 3.0 7.0 0.00 0.00 0.00 92 1011.6
20260507044002 63 155 2.0 5.0 0.00 0.00 0.00 92 1011.6
20260507043502 63 154 2.0 4.0 0.00 0.00 0.00 92 1011.7
20260507043003 63 154 2.0 4.0 0.00 0.00 0.00 92 1011.7
20260507042502 63 154 2.0 3.0 0.00 0.00 0.00 92 1011.9
20260507042003 63 154 1.0 3.0 0.00 0.00 0.00 92 1011.9
20260507041502 63 154 1.0 5.0 0.00 0.00 0.00 92 1012.3
20260507041024 63 153 1.0 5.0 0.00 0.00 0.00 92 1012.4
20260507040503 63 153 2.0 5.0 0.00 0.00 0.00 92 1012.3
20260507040023 63 156 2.0 5.0 0.00 0.00 0.00 92 1012.5
20260507035503 63 156 1.0 2.0 0.00 0.00 0.00 92 1012.4
20260507035003 63 156 0.0 4.0 0.00 0.00 0.00 92 1012.7
20260507034502 63 156 0.0 6.0 0.00 0.00 0.00 92 1012.5
20260507034002 63 172 2.0 6.0 0.00 0.00 0.00 92 1012.2
20260507033502 63 178 2.0 7.0 0.00 0.00 0.00 92 1012.2
20260507033023 63 202 4.0 7.0 0.00 0.00 0.00 92 1012.5
20260507032502 63 198 4.0 7.0 0.00 0.00 0.00 92 1011.0
20260507032002 63 93 1.0 5.0 0.00 0.00 0.00 92 1013.3
20260507031503 63 194 3.0 5.0 0.00 0.00 0.00 92 1014.4
20260507031002 63 215 1.0 17.0 0.00 0.00 0.00 92 1014.3
20260507030502 63 215 0.0 17.0 0.00 0.00 0.00 92 1014.2
20260507030003 64 215 2.0 6.0 0.00 0.00 0.00 92 1014.0
20260507025503 64 186 2.0 6.0 0.00 0.00 0.00 92 1013.8
20260507025003 64 191 2.0 5.0 0.00 0.00 0.00 91 1013.7
20260507024502 64 238 1.0 8.0 0.00 0.00 0.00 91 1013.6
20260507024023 64 219 2.0 8.0 0.00 0.00 0.00 91 1013.7
20260507023502 64 223 2.0 5.0 0.00 0.00 0.00 91 1013.7
20260507023002 64 229 1.0 6.0 0.00 0.00 0.00 91 1014.1
20260507022503 64 205 2.0 7.0 0.00 0.00 0.00 91 1013.8
20260507022002 64 214 3.0 7.0 0.00 0.00 0.00 91 1014.0
20260507021502 64 13 1.0 2.0 0.00 0.00 0.00 91 1013.7
20260507021024 64 0 0.0 2.0 0.00 0.00 0.00 91 1013.3
20260507020502 64 0 0.0 7.0 0.00 0.00 0.00 91 1013.2
20260507020003 64 13 1.0 7.0 0.00 0.00 0.00 91 1012.6
20260507015502 65 54 2.0 12.0 0.00 0.00 0.00 91 1014.3
20260507015003 65 281 2.0 12.0 0.00 0.00 0.00 89 1014.5
20260507014523 65 235 3.0 10.0 0.00 0.00 0.00 89 1013.9
20260507014002 65 224 1.0 4.0 0.00 0.00 0.00 89 1013.4
20260507013502 65 358 1.0 4.0 0.00 0.00 0.00 89 1012.8
20260507013003 66 10 2.0 4.0 0.00 0.00 0.00 89 1012.6
20260507012502 66 12 1.0 3.0 0.00 0.00 0.00 89 1012.4
20260507012003 66 18 1.0 2.0 0.00 0.00 0.00 89 1012.8
20260507011502 66 18 0.0 4.0 0.00 0.00 0.00 89 1012.6
20260507011003 66 18 1.0 12.0 0.00 0.00 0.00 88 1012.5
20260507010502 67 15 2.0 12.0 0.00 0.00 0.00 88 1012.2
20260507010003 67 181 1.0 7.0 0.00 0.00 0.00 88 1012.3
20260507005523 67 293 2.0 7.0 0.00 0.00 0.00 88 1012.3
20260507005002 68 9 3.0 8.0 0.00 0.00 0.00 88 1012.1
20260507004503 68 283 1.0 8.0 0.00 0.00 0.00 88 1011.9
20260507004003 68 47 2.0 7.0 0.00 0.00 0.00 87 1012.3
20260507003503 69 297 1.0 5.0 0.00 0.00 0.00 87 1012.7
20260507003003 69 252 1.0 4.0 0.00 0.00 0.00 87 1012.6
20260507002502 70 264 1.0 2.0 0.00 0.00 0.00 84 1012.2
20260507002023 70 264 0.0 2.0 0.00 0.00 0.00 83 1012.1
20260507001504 71 264 0.0 2.0 0.00 0.00 0.00 82 1011.9
20260507001003 72 315 1.0 3.0 0.00 0.00 0.00 78 1011.9
20260507000502 73 267 1.0 3.0 0.00 0.00 0.00 74 1011.9
20260507000003 73 200 1.0 3.0 0.00 0.00 0.00 72 1012.1
20260506235503 73 200 0.0 5.0 0.00 0.00 0.00 71 1011.8
20260506235002 74 216 2.0 5.0 0.00 0.00 0.00 70 1011.6
20260506234502 74 258 0.0 4.0 0.00 0.00 0.00 69 1011.6
20260506234003 74 226 2.0 3.0 0.00 0.00 0.00 69 1011.6
20260506233502 74 345 0.0 6.0 0.00 0.00 0.00 68 1011.4
20260506233002 74 177 2.0 6.0 0.00 0.00 0.00 67 1011.5
20260506232523 75 189 1.0 8.0 0.00 0.00 0.00 67 1011.6
20260506232003 75 221 4.0 8.0 0.00 0.00 0.00 67 1011.6
20260506231504 75 210 3.0 12.0 0.00 0.00 0.00 67 1011.7
20260506231002 75 220 3.0 12.0 0.00 0.00 0.00 67 1011.8
20260506230524 75 224 5.0 12.0 0.00 0.00 0.00 65 1011.9
20260506230002 75 205 4.0 12.0 0.00 0.00 0.00 65 1011.8
20260506225503 76 229 2.0 12.0 0.00 0.00 0.00 65 1011.6
20260506225023 76 163 3.0 8.0 0.00 0.00 0.00 65 1011.5
20260506224503 76 170 3.0 8.0 0.00 0.00 0.00 64 1011.3
20260506224002 76 185 2.0 12.0 0.00 0.00 0.00 64 1011.4
20260506223502 76 169 1.0 13.0 0.00 0.00 0.00 63 1011.5
20260506223003 76 209 5.0 16.0 0.00 0.00 0.00 63 1011.5
20260506222503 76 221 6.0 16.0 0.00 0.00 0.00 63 1011.7
20260506222003 77 211 5.0 15.0 0.00 0.00 0.00 63 1011.6
20260506221503 77 216 5.0 15.0 0.00 0.00 0.00 62 1011.6
20260506221025 77 204 5.0 12.0 0.00 0.00 0.00 62 1011.6
20260506220525 77 228 3.0 13.0 0.00 0.00 0.00 62 1011.7
20260506220003 77 221 5.0 13.0 0.00 0.00 0.00 62 1011.7
20260506215504 77 231 2.0 13.0 0.00 0.00 0.00 63 1011.7
20260506215025 77 213 3.0 13.0 0.00 0.00 0.00 63 1011.6
20260506214503 77 196 5.0 13.0 0.00 0.00 0.00 62 1011.5
20260506214002 77 189 3.0 16.0 0.00 0.00 0.00 63 1011.6
20260506213502 77 164 8.0 16.0 0.00 0.00 0.00 63 1011.5
20260506213002 77 213 7.0 13.0 0.00 0.00 0.00 61 1011.7
20260506212523 78 220 5.0 17.0 0.00 0.00 0.00 60 1011.8
20260506212003 78 208 7.0 17.0 0.00 0.00 0.00 60 1011.9
20260506211503 78 216 4.0 16.0 0.00 0.00 0.00 61 1011.8
20260506211003 78 228 6.0 16.0 0.00 0.00 0.00 61 1011.9
20260506210525 78 236 3.0 14.0 0.00 0.00 0.00 61 1011.9
20260506210003 78 229 5.0 12.0 0.00 0.00 0.00 62 1011.8
20260506205503 77 226 5.0 16.0 0.00 0.00 0.00 63 1011.8
20260506205003 77 226 4.0 16.0 0.00 0.00 0.00 62 1011.9
20260506204503 77 209 8.0 19.0 0.00 0.00 0.00 62 1011.8
20260506204002 76 227 6.0 19.0 0.00 0.00 0.00 64 1011.9
20260506203503 76 208 6.0 17.0 0.00 0.00 0.00 64 1012.0
20260506203004 76 203 7.0 19.0 0.00 0.00 0.00 63 1011.9
20260506202502 76 217 8.0 19.0 0.00 0.00 0.00 63 1012.0
20260506202002 78 218 9.0 19.0 0.00 0.00 0.00 62 1012.2
20260506201502 78 231 3.0 10.0 0.00 0.00 0.00 67 1012.1
20260506201003 77 229 5.0 13.0 0.00 0.00 0.00 64 1012.2
20260506200503 76 180 4.0 13.0 0.00 0.00 0.00 69 1012.1
20260506200004 74 239 3.0 11.0 0.00 0.00 0.00 72 1012.2
20260506195524 73 239 6.0 11.0 0.00 0.00 0.00 72 1012.3
20260506195004 73 235 3.0 11.0 0.00 0.00 0.00 72 1012.4
20260506194502 73 195 3.0 14.0 0.00 0.00 0.00 72 1012.6
20260506194002 73 225 6.0 17.0 0.00 0.00 0.00 72 1012.4
20260506193503 73 226 5.0 17.0 0.00 0.00 0.00 74 1012.4
20260506193002 72 235 4.0 15.0 0.00 0.00 0.00 75 1012.3
20260506192523 72 195 4.0 15.0 0.00 0.00 0.00 74 1012.4
20260506192003 72 221 6.0 11.0 0.00 0.00 0.00 75 1012.4
20260506191503 72 215 2.0 10.0 0.00 0.00 0.00 78 1012.5
20260506191003 71 166 6.0 12.0 0.00 0.00 0.00 78 1012.6
20260506190503 71 218 3.0 17.0 0.00 0.00 0.00 78 1012.6
20260506190004 71 155 3.0 17.0 0.00 0.00 0.00 78 1012.6